Port Angeles, WA
on Tuesday, November 20, 2012

Tuesday
Previous Day Next Day
Daily Summary
 ActualAverageRecord
Temperature
Mean Temperature °F °F  
Max Temperature 48°F 49°F 60°F (1962)
Min Temperature 37°F 37°F 21°F (1977)
Degree Days
Heating Degree Days 22    
Moisture
Dew Point 40°F   
Average Humidity 93    
Maximum Humidity 100    
Minimum Humidity 86    
Precipitation
Precipitation 0.09 in in in ()
Wind
Wind Speed 3 mph   
Max Wind Speed 12 mph   
Max Gust Speed mph   
Visibility 6 miles   
Events Rain   
Averages and records for this station are not official NWS values.
Key: T is trace of precipitation, MM is missing value
Source: NWS Daily Summary
Seasonal Weather Averages
Time(PST)TemperatureDew PointHumidity Pressure Visibility Wind DirectionWind SpeedGust SpeedPrecipitationEvents Conditions
12:53 AM 44.1°F 42.1°F 93% 29.65 in 10.0 miles Calm Calm - 0.00 in Rain Light Rain
1:19 AM 42.1°F 39.9°F 92% 29.64 in 1.8 miles SE 6.9 mph - 0.00 in   Overcast
1:30 AM 41.0°F 39.9°F 96% 29.64 in 3.0 miles SE 3.5 mph - 0.00 in   Mostly Cloudy
1:41 AM 41.0°F 39.9°F 96% 29.64 in 1.8 miles Variable 3.5 mph - 0.00 in   Mostly Cloudy
1:53 AM 39.9°F 39.0°F 97% 29.65 in 0.8 miles Calm Calm - 0.00 in   Partly Cloudy
2:14 AM 41.0°F 39.9°F 96% 29.64 in 3.0 miles Calm Calm - N/A   Clear
2:19 AM 39.9°F 39.0°F 97% 29.64 in 1.8 miles SW 3.5 mph - N/A   Partly Cloudy
2:24 AM 37.9°F 37.0°F 97% 29.64 in 0.8 miles Calm Calm - N/A   Mist
2:36 AM 39.9°F 37.9°F 93% 29.64 in 1.2 miles SW 5.8 mph - N/A   Partly Cloudy
2:42 AM 41.0°F 39.0°F 93% 29.65 in 3.0 miles SW 6.9 mph - N/A   Scattered Clouds
2:53 AM 41.0°F 39.9°F 96% 29.65 in 10.0 miles Calm Calm - 0.00 in Rain Light Rain
3:09 AM 41.0°F 39.0°F 93% 29.63 in 1.8 miles Calm Calm - 0.00 in Rain Light Rain
3:29 AM 39.0°F 37.9°F 96% 29.63 in 1.0 miles Calm Calm - 0.00 in   Mostly Cloudy
3:35 AM 42.1°F 39.9°F 92% 29.62 in 4.0 miles Calm Calm - 0.00 in   Mostly Cloudy
3:53 AM 41.0°F 39.0°F 93% 29.63 in 10.0 miles South 4.6 mph - 0.00 in   Overcast
4:29 AM 39.9°F 39.0°F 97% 29.61 in 1.8 miles Calm Calm - N/A   Mostly Cloudy
4:34 AM 39.9°F 37.9°F 93% 29.61 in 0.8 miles WSW 3.5 mph - N/A   Mostly Cloudy
4:48 AM 39.2°F 39.2°F 100% 29.61 in 1.2 miles Calm Calm - N/A   Mostly Cloudy
4:53 AM 41.0°F 39.0°F 93% 29.61 in 2.5 miles WSW 4.6 mph - N/A   Mostly Cloudy
5:03 AM 39.0°F 39.0°F 100% 29.61 in 1.2 miles SW 4.6 mph - N/A   Mostly Cloudy
5:18 AM 39.9°F 37.9°F 93% 29.60 in 1.5 miles Calm Calm - N/A   Scattered Clouds
5:32 AM 39.9°F 39.0°F 97% 29.61 in 1.8 miles SW 3.5 mph - N/A   Mostly Cloudy
5:45 AM 41.0°F 39.0°F 93% 29.60 in 3.0 miles West 5.8 mph - N/A   Mostly Cloudy
5:53 AM 39.9°F 37.9°F 93% 29.60 in 10.0 miles WSW 5.8 mph - N/A   Mostly Cloudy
6:18 AM 37.9°F 37.0°F 97% 29.59 in 1.8 miles Calm Calm - N/A   Partly Cloudy
6:30 AM 39.0°F 37.0°F 93% 29.58 in 0.8 miles West 4.6 mph - N/A   Scattered Clouds
6:39 AM 39.0°F 37.0°F 93% 29.57 in 2.0 miles South 3.5 mph - N/A   Scattered Clouds
6:50 AM 37.4°F 37.4°F 100% 29.56 in 1.0 miles Calm Calm - N/A   Scattered Clouds
6:53 AM 37.9°F 37.0°F 97% 29.57 in 1.0 miles ESE 3.5 mph - N/A   Partly Cloudy
7:03 AM 39.0°F 37.0°F 93% 29.56 in 0.8 miles Calm Calm - N/A   Scattered Clouds
7:07 AM 39.9°F 37.9°F 93% 29.55 in 1.0 miles Calm Calm - N/A   Mist
7:11 AM 39.0°F 37.0°F 93% 29.56 in 2.0 miles WSW 3.5 mph - N/A   Partly Cloudy
7:19 AM 37.9°F 37.0°F 97% 29.56 in 7.0 miles ESE 3.5 mph - N/A   Scattered Clouds
7:53 AM 39.9°F 39.0°F 97% 29.55 in 8.0 miles ESE 5.8 mph - N/A   Mostly Cloudy
8:53 AM 44.1°F 43.0°F 96% 29.49 in 10.0 miles Calm Calm - N/A   Overcast
9:53 AM 46.0°F 43.0°F 89% 29.48 in 10.0 miles ESE 5.8 mph - N/A   Overcast
10:53 AM 46.4°F 44.6°F 93% 29.45 in 10.0 miles East 5.8 mph - N/A   Overcast
11:27 AM 46.9°F 44.1°F 90% 29.42 in 10.0 miles Calm Calm - N/A   Overcast
11:53 AM 46.9°F 45.0°F 93% 29.41 in 10.0 miles Variable 3.5 mph - 0.00 in   Overcast
12:00 PM 46.9°F 44.1°F 90% 29.40 in 10.0 miles Calm Calm - N/A   Overcast
12:53 PM 46.9°F 45.0°F 93% 29.44 in 6.0 miles NNW 3.5 mph - 0.05 in Rain Light Rain
1:28 PM 48.0°F 45.0°F 89% 29.45 in 10.0 miles SE 6.9 mph - 0.00 in   Scattered Clouds
1:53 PM 48.0°F 45.0°F 89% 29.47 in 10.0 miles Calm Calm - 0.00 in Rain Light Rain
2:53 PM 48.9°F 45.0°F 86% 29.51 in 10.0 miles Variable 3.5 mph - 0.00 in   Overcast
3:53 PM 46.0°F 43.0°F 89% 29.54 in 10.0 miles ESE 5.8 mph - N/A   Partly Cloudy
4:53 PM 45.0°F 42.1°F 90% 29.57 in 10.0 miles East 4.6 mph - 0.00 in Rain Light Rain
5:53 PM 45.0°F 41.0°F 86% 29.59 in 10.0 miles WSW 4.6 mph - 0.01 in Rain Light Rain
6:53 PM 43.0°F 41.0°F 93% 29.61 in 10.0 miles WNW 3.5 mph - 0.02 in Rain Light Rain
7:36 PM 43.0°F 41.0°F 93% 29.60 in 10.0 miles Calm Calm - 0.00 in   Overcast
7:46 PM 43.0°F 41.0°F 93% 29.60 in 10.0 miles Calm Calm - 0.00 in   Overcast
7:53 PM 44.1°F 41.0°F 89% 29.61 in 10.0 miles WNW 3.5 mph - 0.00 in   Overcast
8:03 PM 43.0°F 39.9°F 89% 29.60 in 10.0 miles West 3.5 mph - N/A   Mostly Cloudy
8:10 PM 43.0°F 41.0°F 93% 29.61 in 10.0 miles West 3.5 mph - N/A   Mostly Cloudy
8:22 PM 42.1°F 39.9°F 92% 29.61 in 10.0 miles NW 4.6 mph - N/A   Mostly Cloudy
8:35 PM 42.1°F 39.9°F 92% 29.61 in 10.0 miles ESE 3.5 mph - N/A   Scattered Clouds
8:53 PM 41.0°F 39.9°F 96% 29.62 in 10.0 miles Calm Calm - N/A   Mostly Cloudy
9:46 PM 43.0°F 41.0°F 93% 29.62 in 10.0 miles SSE 3.5 mph - N/A   Overcast
9:53 PM 43.0°F 41.0°F 93% 29.62 in 10.0 miles SE 3.5 mph - N/A   Overcast
10:53 PM 44.1°F 41.0°F 89% 29.60 in 10.0 miles SSE 4.6 mph - 0.00 in Rain Light Rain
11:50 PM 44.6°F 41.0°F 87% 29.56 in 10.0 miles SE 9.2 mph - 0.01 in Rain Light Rain
11:53 PM 44.1°F 41.0°F 89% 29.57 in 10.0 miles SE 11.5 mph - 0.01 in Rain Light Rain
Moon Phase
Nov. 20 Nov. 28 Dec. 06 Dec. 13 Dec. 20
Sunrise:07:29 AM (PST) Moon Rise:12:49 PM (PST)11/20
Sunset:04:30 PM (PST) Moon Set:No Moon Set/

Copyright © 2014 The Weather Underground, Inc.